Terminal Aerodrome Forecast
Issued by NWS Spokane, WA

Home | Current Version | Previous Version | Text Only | Print | Product List | Glossary On
Versions: 1 2 3 4 5 6 7 8 9 10 11 12 13 14 15 16 17 18 19 20 21 22 23 24 25 26
000
FTUS46 KOTX 251730
TAFEAT
TAF
KEAT 251730Z 2518/2618 29008KT P6SM VCSH SCT070 BKN100
     FM252000 30008KT P6SM VCSH SCT070 BKN120
     FM260000 30014G18KT P6SM FEW150
     FM260400 30009KT P6SM FEW150=

USA.gov is the U.S. government's official web portal to all federal, state and local government web resources and services.